User: anonymous   Login
Location: Ku?niki
(51.4449°N, 17.8974°E)
Time: 09:29:24
(UTC+00:00)
Language:

DX 1 - Orbit

View from above orbital plane
View from above orbital plane
View from above satellite
View from above satellite

Ground track
Ground track

The orbit data is extracted from the following two-line orbital elements,

1 40071U 14037C   22179.81556633  .00000586  00000-0  81464-4 0  9991
2 40071  98.4084  49.1189 0007164 284.6160  75.4253 14.81885078431020
Epoch (UTC): 28 June 2022 19:34:24
Eccentricity: 0.0007164
inclination: 98.4084°
perigee height: 618 km
apogee height: 628 km
right ascension of ascending node: 49.1189°
argument of perigee: 284.6160°
revolutions per day: 14.81885078
mean anomaly at epoch: 75.4253°
orbit number at epoch: 43102

The dashed part of the orbit path shows where the satellite is in the earth's shadow,  

DLR